Quillayute, WA

11:33 PM PDT on May 21, 2018 (GMT -0700)
Quillayute

Weather History for KUIL - October, 2010

Change the Weather History Date:

Saturday, October 2, 2010

  Actual Average Record
Temperature  
Mean Temperature 57 °F 53 °F  
Max Temperature 64 °F 63 °F 80 °F (1970)
Min Temperature 50 °F 44 °F 33 °F (1968)
Degree Days  
Heating Degree Days 8 12  
Month to date heating degree days 24  
Since 1 July heating degree days 649  
Cooling Degree Days 0 0  
Month to date cooling degree days 0  
Year to date cooling degree days 19  
Growing Degree Days 7 (Base 50)    
Moisture  
Dew Point 52 °F    
Average Humidity 84    
Maximum Humidity 100    
Minimum Humidity 63    
Precipitation  
Precipitation 0.00 in 0.22 in 0.99 in (2008)
Month to date precipitation 0.43  
Year to date precipitation 60.97  
Sea Level Pressure  
Sea Level Pressure 30.08 in    
Wind  
Wind Speed 3 mph (NW)    
Max Wind Speed 13 mph    
Max Gust Speed 17 mph    
Visibility 8 miles    
Events      
T = Trace of Precipitation, MM = Missing Value Source: NWS Daily Summary

Daily Weather History Graph

Daily Weather History Graph

Search for Another Location

Airport or City:

Astronomy

Oct. 02, 2010 Rise Set
Actual Time 7:18 AM PDT 6:55 PM PDT
Civil Twilight 6:48 AM PDT 7:26 PM PDT
Nautical Twilight 6:12 AM PDT 8:01 PM PDT
Astronomical Twilight 5:35 AM PDT 8:38 PM PDT
Moon 12:42 AM PDT (10/2) 4:10 PM PDT (10/2)
Length of Visible Light 12h 38m
Length of Day
11h 36m
Waning Crescent, 32% of the Moon is Illuminated
Oct 2
Waning Crescent
Oct 7
New
Oct 14
First Quarter
Oct 22
Full
Oct 30
Last Quarter

Hourly Weather History & Observations

Time (PDT) Temp. Dew Point Humidity Pressure Visibility Wind Dir Wind Speed Gust Speed Precip Events Conditions
12:53 AM 57.0 °F 55.0 °F 93% 30.13 in 10.0 mi Calm Calm - N/A   Overcast
1:53 AM 55.9 °F 54.0 °F 93% 30.13 in 8.0 mi Calm Calm - N/A   Overcast
2:02 AM 55.4 °F 53.6 °F 94% 30.13 in 7.0 mi Calm Calm - N/A   Overcast
2:53 AM 55.9 °F 54.0 °F 93% 30.13 in 8.0 mi Calm Calm - N/A   Overcast
3:53 AM 55.0 °F 53.1 °F 93% 30.12 in 10.0 mi Calm Calm - N/A   Overcast
4:13 AM 53.6 °F 53.6 °F 100% 30.12 in 1.8 mi Calm Calm - N/A   Scattered Clouds
4:22 AM 53.6 °F 51.8 °F 94% 30.12 in 3.0 mi Calm Calm - N/A   Mostly Cloudy
4:53 AM 52.0 °F 51.1 °F 97% 30.12 in 5.0 mi Calm Calm - N/A   Overcast
5:13 AM 51.8 °F 50.0 °F 94% 30.12 in 1.2 mi Calm Calm - N/A   Scattered Clouds
5:33 AM 51.8 °F 50.0 °F 94% 30.12 in 3.0 mi Calm Calm - N/A   Mostly Cloudy
5:53 AM 51.1 °F 50.0 °F 96% 30.13 in 7.0 mi Calm Calm - N/A   Overcast
6:53 AM 53.1 °F 51.1 °F 93% 30.13 in 10.0 mi Calm Calm - N/A   Overcast
7:53 AM 52.0 °F 51.1 °F 97% 30.13 in 6.0 mi Calm Calm - N/A   Scattered Clouds
8:53 AM 55.9 °F 53.1 °F 90% 30.13 in 10.0 mi Calm Calm - N/A   Clear
9:53 AM 59.0 °F 53.1 °F 81% 30.13 in 10.0 mi Calm Calm - N/A   Overcast
10:53 AM 60.1 °F 50.0 °F 69% 30.12 in 10.0 mi North 4.6 mph - N/A   Mostly Cloudy
11:53 AM 62.1 °F 51.1 °F 67% 30.11 in 10.0 mi WNW 6.9 mph - N/A   Mostly Cloudy
12:03 PM 62.6 °F 51.8 °F 68% 30.10 in 10.0 mi North 3.5 mph - N/A   Scattered Clouds
12:53 PM 63.0 °F 51.1 °F 65% 30.09 in 10.0 mi NW 8.1 mph - N/A   Partly Cloudy
1:53 PM 63.0 °F 50.0 °F 63% 30.07 in 10.0 mi NNW 4.6 mph - N/A   Clear
2:53 PM 63.0 °F 51.1 °F 65% 30.05 in 10.0 mi WNW 9.2 mph 16.1 mph N/A   Clear
3:53 PM 62.1 °F 50.0 °F 65% 30.03 in 10.0 mi NW 10.4 mph - N/A   Clear
4:53 PM 60.1 °F 50.0 °F 69% 30.01 in 10.0 mi NW 6.9 mph - N/A   Clear
5:53 PM 59.0 °F 51.1 °F 75% 29.99 in 10.0 mi NNW 5.8 mph - N/A   Clear
6:53 PM 55.9 °F 52.0 °F 87% 29.98 in 10.0 mi NW 4.6 mph - N/A   Mostly Cloudy
7:53 PM 55.0 °F 51.1 °F 86% 29.99 in 10.0 mi NNW 9.2 mph - N/A   Overcast
8:53 PM 55.0 °F 51.1 °F 86% 29.99 in 10.0 mi NNW 6.9 mph - N/A   Overcast
9:53 PM 55.0 °F 51.1 °F 86% 29.98 in 10.0 mi WNW 4.6 mph - N/A   Overcast
10:53 PM 54.0 °F 51.1 °F 90% 29.98 in 10.0 mi Calm Calm - N/A   Overcast
11:53 PM 54.0 °F 51.1 °F 90% 29.97 in 9.0 mi Calm Calm - N/A   Overcast